Wind_Speed
21 21 21 22 23 23 24 23 23 21 20 19 19 18 17 16 15 15 15 14 14 14 14 14 13 12 12 12 12 11 11 11 11 11 11 11 11 12 12 11 11 12 12 13
21 20 21 22 23 24 24 24 24 23 21 20 19 19 19 19 17 16 17 16 15 15 15 14 13 12 12 11 12 11 11 11 11 11 11 11 11 12 11 11 11 12 12 13
21 21 23 23 22 22 23 23 23 23 23 22 21 21 21 20 18 17 18 18 17 16 15 14 14 13 13 12 12 12 12 12 12 12 11 12 12 12 12 12 12 12 12 13
21 22 23 21 21 22 21 22 23 23 23 23 23 22 22 21 20 19 18 18 18 17 17 16 15 15 14 13 13 13 12 12 13 13 13 13 13 13 13 12 13 13 13 14
22 23 22 21 22 21 22 21 22 23 23 23 24 24 23 23 21 20 19 19 18 18 18 17 16 16 15 15 14 14 13 13 14 14 14 14 14 14 14 14 14 14 15 15
22 22 22 20 20 20 22 22 22 22 22 23 24 24 24 23 22 21 20 20 19 19 18 17 17 17 17 16 15 15 15 15 15 15 15 15 15 15 14 15 15 15 16 17
22 22 22 20 21 21 22 22 22 22 22 23 24 24 25 25 23 22 21 21 21 20 19 18 17 17 17 17 16 16 16 16 16 16 16 16 16 16 16 17 17 17 18 18
23 23 22 21 22 23 23 23 22 22 22 23 24 25 25 24 24 23 22 22 22 21 20 19 19 19 19 18 18 17 17 17 17 18 18 18 17 18 18 18 18 19 19 19
23 23 22 22 23 24 24 24 24 24 23 23 23 24 25 24 24 24 23 23 23 22 21 21 20 20 20 19 19 19 18 18 19 19 19 19 19 19 19 19 19 19 20 20
24 23 22 23 24 25 25 25 25 25 25 25 24 24 25 25 25 25 24 24 23 23 22 22 22 21 20 20 20 20 19 19 19 20 20 20 20 20 20 20 20 21 21 21
25 24 24 24 25 25 26 26 25 25 25 25 25 26 26 26 26 26 26 25 24 24 24 23 23 22 22 21 21 21 20 20 20 20 21 20 20 20 21 21 22 22 23 23
27 25 25 25 25 25 25 25 25 25 24 25 26 26 26 26 26 26 26 26 25 25 25 25 24 24 23 23 23 22 22 22 22 22 22 21 21 22 22 23 24 24 25 25
28 27 27 26 26 26 25 25 24 25 25 25 26 26 26 26 26 26 27 27 27 27 26 26 25 25 25 24 24 24 24 23 23 23 23 23 23 24 24 25 25 25 26 26
29 29 29 28 28 28 27 26 25 25 26 26 26 26 26 26 26 26 27 27 27 27 27 26 26 26 26 25 25 25 25 25 24 25 25 25 25 26 26 26 26 27 27 28
29 29 29 29 28 28 28 27 27 27 27 27 26 26 27 26 26 26 27 27 27 28 28 28 27 27 27 27 27 27 27 27 27 27 27 27 27 28 28 28 28 28 28 29
30 30 30 30 29 29 28 28 28 27 27 27 27 27 27 27 27 27 28 28 28 28 29 29 29 29 29 29 29 29 29 30 30 30 29 29 29 30 30 30 30 30 30 30
32 31 31 30 30 30 30 30 29 29 28 28 28 28 29 29 29 29 30 30 30 30 30 31 31 31 32 32 31 31 32 32 32 32 32 32 31 32 32 32 32 32 32 32
32 32 32 32 31 31 31 31 31 31 30 30 29 30 31 31 30 31 31 32 32 31 32 33 33 33 33 33 33 34 34 34 33 33 34 34 33 33 33 34 34 33 33 33
32 32 32 33 32 32 32 31 31 32 32 31 31 31 32 32 32 32 33 33 33 33 34 34 35 35 34 34 35 35 36 35 35 35 35 35 35 34 34 34 34 34 34 34
32 33 33 33 32 32 32 32 32 32 32 32 32 32 32 32 33 33 34 34 34 34 34 35 35 36 36 36 36 35 36 36 36 36 35 35 35 36 35 35 35 35 34 34
33 33 34 34 33 33 33 33 33 32 32 33 33 32 32 33 33 33 33 34 34 35 35 36 36 36 36 37 37 37 37 37 37 36 35 36 36 36 36 36 36 36 36 36
32 32 33 34 34 34 34 34 34 33 33 34 34 34 34 34 34 34 34 34 35 35 36 36 37 37 38 38 38 38 38 37 36 36 35 35 36 36 36 36 36 36 36 37
30 31 32 32 33 34 34 34 34 35 35 35 35 35 35 35 35 35 35 35 36 36 37 37 37 38 38 38 38 37 37 37 37 36 36 36 37 37 37 37 37 38 38 38
30 30 31 31 32 33 34 35 35 36 36 36 36 36 36 35 35 36 36 36 36 37 37 37 37 38 37 38 38 37 37 37 37 37 37 37 37 37 37 37 38 38 38 39
30 30 30 31 32 32 33 34 35 35 35 35 35 35 35 36 36 36 37 37 36 37 37 37 37 37 38 37 37 37 37 37 38 38 39 39 39 38 38 38 38 38 38 39
30 30 30 31 31 32 33 33 34 34 35 35 35 35 35 35 35 36 37 37 37 36 36 36 37 38 38 37 37 37 37 38 38 38 38 39 40 40 39 39 39 39 40 39
29 30 30 31 31 31 32 33 33 33 34 34 35 35 35 35 35 35 36 36 36 36 36 36 37 37 37 37 38 38 38 39 39 40 40 40 40 40 41 41 40 40 40 40
Wind_Direction
255 250 253 251 246 242 242 244 246 244 247 254 254 254 255 255 255 257 257 255 255 254 253 254 254 254 255 255 254 255 259 261 260 261 265 267 263 266 267 268 272 275 275 277
256 255 253 249 246 246 245 244 245 248 249 251 251 250 251 252 252 253 254 253 254 253 251 249 249 251 253 255 256 258 260 262 261 261 264 267 269 271 272 272 276 278 277 278
256 255 254 250 247 247 246 245 246 249 250 249 249 249 250 251 250 249 252 253 254 254 251 248 247 249 251 254 257 259 261 263 264 262 263 268 272 273 275 276 277 279 280 283
255 255 255 251 247 248 248 246 248 250 250 249 248 248 248 249 250 250 251 250 250 252 252 250 249 251 253 254 256 260 262 264 265 265 265 269 271 272 273 276 276 278 281 282
254 252 257 254 249 249 250 249 249 250 252 250 249 248 248 247 248 249 249 248 248 249 250 251 251 251 252 256 258 261 265 265 267 269 270 271 271 274 272 275 277 279 280 283
253 255 260 258 253 252 252 251 250 251 252 253 250 248 247 246 248 249 247 246 247 247 248 250 252 252 253 256 258 262 266 267 268 269 271 271 271 273 274 275 278 279 282 283
252 256 257 255 255 252 251 252 252 251 253 253 252 250 248 247 247 247 246 246 246 247 246 248 250 252 253 255 259 262 264 265 266 267 269 270 272 273 275 276 278 279 282 282
252 253 255 257 256 254 254 253 253 253 252 253 253 250 248 247 246 245 245 245 245 247 247 248 250 252 253 255 258 261 263 264 266 267 269 270 271 273 276 278 277 278 281 284
254 255 256 255 256 257 257 256 254 254 253 252 252 249 246 245 245 244 243 243 244 245 246 247 250 254 256 257 258 260 262 264 266 268 269 270 272 274 277 279 278 277 279 282
254 252 253 255 256 258 257 258 256 254 254 252 250 247 245 244 245 244 242 243 243 244 246 248 250 253 256 257 258 260 262 264 267 269 270 271 272 273 276 279 279 278 280 281
254 254 254 254 256 258 258 258 257 254 253 251 249 247 247 246 245 245 243 242 242 244 246 248 250 252 254 257 258 259 261 264 266 269 271 273 274 274 276 278 280 279 280 281
253 255 256 256 256 258 258 258 258 255 252 251 251 248 247 247 246 245 243 243 244 245 247 248 250 251 254 257 259 261 263 265 266 268 270 272 275 275 276 279 281 281 282 283
253 253 254 255 255 258 258 257 258 256 253 252 251 249 247 247 245 244 244 244 245 246 247 249 250 251 254 257 259 261 263 264 266 268 270 272 275 277 278 279 280 281 282 282
254 254 253 254 254 255 256 257 258 256 254 253 252 251 249 248 246 245 245 244 246 246 247 248 250 251 254 256 258 261 263 265 266 267 269 271 274 276 278 279 280 280 281 281
253 253 253 253 255 255 255 256 257 256 254 253 252 252 252 248 246 246 246 246 246 248 248 249 250 251 253 256 258 260 263 266 267 269 269 271 275 276 278 279 280 281 281 281
252 252 253 252 253 254 255 255 256 255 254 254 252 252 251 249 248 247 248 248 249 250 250 251 252 252 254 256 258 261 264 266 268 269 271 272 274 276 278 280 280 281 280 281
251 252 252 251 253 254 254 254 254 254 254 254 254 253 252 252 250 249 249 250 251 251 252 253 253 254 255 257 259 262 264 266 268 270 271 273 275 277 278 280 280 280 281 283
250 251 251 252 253 254 253 253 254 255 255 255 255 254 254 255 254 252 252 252 252 252 253 254 255 256 257 259 261 263 265 266 268 270 272 273 274 276 278 279 280 280 281 282
250 251 251 253 254 255 254 254 254 255 255 256 256 256 256 255 255 254 254 254 253 253 254 255 256 258 259 261 262 264 265 267 268 271 272 273 274 276 278 280 280 280 281 282
253 252 253 253 254 254 255 255 256 256 255 256 257 258 257 256 255 255 254 255 255 255 256 256 257 258 259 262 263 265 266 268 269 270 272 273 274 276 279 280 280 280 280 281
254 254 254 254 254 254 254 255 256 257 256 255 256 258 257 256 256 255 256 256 256 256 256 257 258 259 261 262 263 264 266 268 269 271 272 273 274 276 278 280 279 280 280 281
254 255 254 253 253 253 253 254 255 255 256 256 256 257 258 257 256 256 256 256 256 257 258 259 259 261 262 263 264 265 265 266 267 268 270 272 273 274 276 277 278 280 281 282
254 256 255 255 254 253 253 253 254 255 256 256 257 257 258 257 257 257 258 258 258 258 259 260 261 262 263 264 265 266 266 266 267 267 269 271 273 275 276 277 278 279 281 282
255 256 257 256 255 254 254 255 255 256 256 256 255 256 257 257 257 258 259 260 259 259 260 260 261 262 263 265 266 266 266 266 267 268 269 271 273 275 275 277 278 278 280 281
257 257 256 256 256 256 257 257 256 256 256 256 255 255 257 257 258 259 260 261 262 262 261 261 261 263 265 266 267 265 265 266 267 269 270 272 273 274 275 276 277 277 278 280
257 256 257 258 258 258 258 258 257 256 255 255 254 255 256 257 258 259 260 261 262 263 263 261 261 262 263 265 266 265 266 267 268 269 270 270 271 273 274 275 276 277 278 280
258 257 258 259 260 259 259 259 260 258 256 255 255 256 257 258 259 260 260 261 262 263 263 263 262 262 263 265 266 267 269 270 270 269 269 270 271 273 274 274 275 277 278 280
Height
5800 5802 5802 5804 5806 5808 5810 5813 5816 5818 5820 5822 5823 5824 5825 5826 5827 5828 5829 5830 5831 5832 5833 5834 5835 5836 5837 5838 5839 5840 5840 5841 5842 5843 5843 5843 5844 5845 5845 5845 5845 5846 5846 5846
5795 5796 5797 5798 5800 5803 5805 5807 5810 5812 5815 5816 5817 5819 5820 5821 5822 5824 5825 5826 5827 5828 5829 5830 5831 5833 5834 5835 5836 5837 5838 5838 5839 5839 5840 5841 5841 5841 5841 5842 5842 5842 5842 5842
5790 5791 5791 5792 5795 5797 5799 5801 5804 5806 5809 5810 5812 5813 5816 5817 5818 5819 5821 5822 5823 5825 5826 5827 5828 5829 5830 5831 5832 5834 5835 5835 5836 5836 5837 5837 5838 5838 5838 5838 5838 5839 5839 5838
5784 5786 5786 5790 5790 5792 5794 5796 5798 5800 5802 5804 5806 5808 5810 5812 5813 5815 5816 5817 5819 5821 5822 5823 5824 5826 5827 5828 5829 5830 5831 5832 5832 5833 5833 5834 5834 5834 5835 5835 5835 5835 5835 5835
5778 5779 5780 5783 5784 5786 5788 5790 5792 5794 5796 5798 5800 5802 5804 5805 5808 5809 5811 5813 5815 5816 5817 5819 5820 5822 5823 5824 5825 5826 5827 5828 5828 5829 5830 5830 5830 5830 5831 5831 5831 5831 5831 5830
5773 5773 5775 5778 5780 5781 5783 5785 5787 5788 5790 5792 5793 5795 5798 5800 5802 5804 5806 5808 5809 5811 5812 5814 5816 5817 5818 5820 5821 5822 5823 5824 5824 5825 5825 5826 5826 5826 5827 5827 5827 5827 5826 5826
5767 5767 5769 5772 5774 5776 5778 5780 5781 5782 5783 5785 5787 5789 5791 5793 5796 5798 5800 5802 5804 5806 5808 5809 5811 5812 5814 5815 5816 5818 5819 5819 5820 5820 5821 5821 5822 5822 5822 5822 5822 5822 5822 5821
5761 5762 5766 5767 5768 5770 5772 5773 5775 5776 5777 5779 5781 5782 5784 5787 5789 5792 5794 5796 5798 5800 5802 5804 5806 5807 5809 5810 5811 5812 5813 5814 5815 5815 5816 5816 5817 5817 5817 5817 5817 5817 5816 5816
5756 5759 5760 5760 5761 5764 5765 5767 5768 5769 5771 5772 5774 5776 5778 5780 5783 5785 5788 5790 5792 5794 5796 5798 5800 5802 5804 5805 5806 5807 5808 5809 5809 5810 5810 5811 5811 5812 5812 5811 5811 5811 5811 5810
5749 5751 5753 5754 5755 5757 5758 5759 5761 5763 5764 5766 5767 5769 5772 5774 5776 5779 5781 5783 5786 5788 5790 5792 5794 5796 5798 5799 5800 5801 5802 5803 5804 5804 5805 5805 5806 5806 5806 5806 5805 5805 5805 5804
5742 5745 5746 5747 5749 5751 5752 5753 5755 5756 5757 5759 5760 5763 5765 5767 5769 5772 5775 5777 5779 5781 5784 5786 5788 5790 5792 5793 5794 5795 5796 5797 5798 5799 5799 5799 5800 5800 5800 5799 5799 5799 5798 5798
5735 5738 5739 5741 5743 5744 5745 5747 5748 5749 5751 5752 5754 5756 5758 5760 5762 5764 5767 5770 5772 5775 5777 5779 5781 5783 5785 5787 5788 5789 5790 5791 5792 5792 5793 5793 5793 5793 5793 5793 5792 5792 5791 5790
5728 5730 5732 5734 5736 5737 5738 5740 5741 5742 5744 5745 5747 5749 5751 5753 5755 5757 5760 5762 5765 5768 5770 5772 5774 5777 5778 5780 5781 5782 5783 5784 5785 5786 5786 5787 5787 5787 5786 5786 5785 5784 5784 5783
5721 5722 5724 5727 5728 5730 5731 5733 5734 5735 5737 5738 5740 5742 5744 5746 5748 5750 5752 5755 5758 5760 5763 5765 5767 5769 5771 5772 5774 5775 5776 5777 5778 5778 5779 5779 5779 5779 5779 5778 5778 5777 5776 5775
5713 5715 5717 5719 5721 5722 5724 5725 5727 5728 5729 5731 5733 5734 5736 5738 5740 5742 5745 5747 5750 5752 5755 5757 5759 5761 5763 5765 5766 5767 5769 5769 5770 5771 5771 5771 5771 5771 5771 5770 5769 5769 5768 5767
5705 5707 5709 5711 5713 5715 5716 5718 5719 5721 5722 5724 5725 5727 5729 5731 5733 5735 5737 5739 5742 5744 5747 5749 5751 5753 5754 5756 5758 5759 5760 5761 5761 5762 5762 5762 5762 5762 5762 5761 5760 5759 5759 5758
5696 5699 5701 5703 5705 5706 5708 5710 5711 5713 5714 5716 5718 5719 5721 5723 5724 5727 5729 5731 5733 5736 5738 5740 5742 5744 5745 5747 5748 5750 5751 5751 5752 5752 5753 5753 5753 5752 5752 5751 5751 5750 5749 5748
5688 5690 5692 5694 5696 5698 5699 5701 5703 5705 5706 5708 5709 5711 5712 5714 5715 5718 5720 5722 5724 5727 5729 5730 5732 5734 5736 5737 5738 5740 5740 5741 5742 5742 5742 5742 5742 5742 5742 5741 5740 5740 5739 5737
5679 5681 5683 5685 5687 5688 5690 5692 5694 5696 5697 5699 5700 5702 5703 5705 5707 5708 5710 5712 5714 5717 5719 5721 5722 5724 5726 5727 5728 5729 5730 5730 5731 5732 5732 5732 5732 5731 5731 5730 5729 5729 5728 5727
5670 5672 5673 5675 5677 5679 5681 5683 5684 5686 5688 5689 5691 5692 5694 5695 5697 5698 5700 5702 5704 5706 5708 5710 5712 5713 5715 5716 5717 5718 5719 5719 5720 5720 5720 5721 5721 5720 5720 5719 5718 5718 5717 5716
5660 5662 5664 5666 5667 5669 5671 5673 5674 5676 5678 5680 5681 5683 5684 5685 5687 5688 5689 5691 5693 5695 5697 5699 5700 5702 5703 5704 5705 5706 5707 5707 5708 5709 5709 5709 5709 5709 5709 5708 5707 5706 5705 5705
5651 5652 5654 5655 5657 5659 5661 5662 5664 5666 5668 5669 5671 5672 5674 5675 5676 5677 5679 5681 5683 5684 5686 5687 5689 5690 5692 5693 5694 5694 5695 5696 5696 5697 5698 5698 5698 5698 5697 5696 5696 5695 5694 5693
5641 5643 5644 5645 5647 5649 5650 5652 5654 5655 5657 5659 5660 5661 5663 5664 5666 5667 5669 5670 5671 5673 5674 5676 5677 5678 5680 5681 5682 5682 5683 5684 5685 5685 5686 5686 5686 5686 5685 5684 5684 5683 5683 5681
5632 5633 5634 5635 5637 5638 5640 5642 5643 5644 5646 5648 5649 5651 5652 5653 5655 5656 5657 5658 5659 5661 5662 5664 5665 5666 5668 5669 5670 5671 5671 5672 5673 5673 5674 5674 5673 5673 5673 5672 5672 5671 5671 5669
5622 5623 5624 5626 5627 5628 5629 5631 5632 5633 5635 5637 5638 5640 5641 5642 5644 5645 5646 5647 5648 5649 5651 5652 5653 5654 5656 5657 5657 5658 5659 5660 5661 5661 5662 5662 5661 5661 5660 5660 5659 5659 5658 5657
5613 5614 5615 5616 5617 5618 5619 5620 5621 5623 5624 5626 5628 5629 5630 5631 5632 5634 5635 5636 5637 5638 5639 5640 5642 5643 5644 5644 5645 5646 5647 5648 5648 5649 5649 5649 5649 5648 5648 5648 5647 5646 5646 5645
5604 5605 5606 5607 5607 5608 5609 5610 5611 5612 5614 5615 5617 5618 5619 5620 5622 5623 5624 5624 5626 5627 5628 5629 5630 5631 5632 5632 5633 5634 5634 5635 5635 5636 5636 5636 5636 5636 5636 5635 5635 5634 5633 5632